Weather History for Soldotna, AK

Change the Weather History Date:

Thursday, January 2, 2014

  Actual Average Record
Temperature  
Mean Temperature 27 °F -  
Max Temperature 33 °F 18 °F 42 °F (1981)
Min Temperature 21 °F 0 °F -39 °F (1975)
Degree Days  
Heating Degree Days 38    
Moisture  
Dew Point 26 °F    
Average Humidity 92    
Maximum Humidity 100    
Minimum Humidity 81    
Precipitation  
Precipitation 0.00 in - - ()
Sea Level Pressure  
Sea Level Pressure 29.83 in    
Wind  
Wind Speed 2 mph (SSE)    
Max Wind Speed 7 mph    
Max Gust Speed -    
Visibility 9 miles    
Events      
Averages and records for this station are not official NWS values.
T = Trace of Precipitation, MM = Missing Value Source: NWS Daily Summary

Daily Weather History Graph

Daily Weather History Graph

Search for Another Location

Airport:

Trip Planner

Search our weather history database for the weather conditions in past years. The results will help you decide how hot, cold, wet, or windy it might be!

Date:

Astronomy

Jan. 02, 2014 Rise Set
Actual Time 10:10 AM AKST 4:06 PM AKST
Civil Twilight 9:12 AM AKST 5:04 PM AKST
Nautical Twilight 8:14 AM AKST 6:02 PM AKST
Astronomical Twilight 7:23 AM AKST 6:54 PM AKST
Moon 10:19 AM AKST (1/2) 7:01 PM AKST (1/2)
Length of Visible Light 7h 52m
Length of Day
5h 56m
Waxing Crescent, 3% of the Moon is Illuminated
Jan 2
Waxing Crescent
Jan 7
First Quarter
Jan 15
Full
Jan 23
Last Quarter
Jan 30
New

Hourly Weather History & Observations

Time (AKST) Temp. Windchill Dew Point Humidity Pressure Visibility Wind Dir Wind Speed Gust Speed Precip Events Conditions
12:16 AM 32.0 °F - 30.2 °F 93% 29.50 in 10.0 mi Calm Calm - N/A   Overcast
12:36 AM 30.2 °F - 28.4 °F 93% 29.51 in 5.0 mi Calm Calm - N/A   Overcast
12:56 AM 32.0 °F - 30.2 °F 93% 29.52 in 10.0 mi Calm Calm - N/A   Overcast
1:16 AM 33.8 °F 30.8 °F 30.2 °F 87% 29.54 in 10.0 mi SW 3.5 mph - N/A   Overcast
1:36 AM 33.8 °F 29.6 °F 30.2 °F 87% 29.55 in 10.0 mi SW 4.6 mph - N/A   Overcast
1:56 AM 33.8 °F 27.7 °F 30.2 °F 87% 29.56 in 10.0 mi SW 6.9 mph - N/A   Overcast
2:16 AM 33.8 °F - 30.2 °F 87% 29.58 in 10.0 mi Calm Calm - N/A   Overcast
2:36 AM 33.8 °F - 28.4 °F 81% 29.59 in 10.0 mi Calm Calm - N/A   Overcast
2:56 AM 33.8 °F - 28.4 °F 81% 29.60 in 10.0 mi Calm Calm - N/A   Overcast
3:16 AM 32.0 °F 26.4 °F 28.4 °F 87% 29.60 in 10.0 mi WSW 5.8 mph - N/A   Overcast
3:36 AM 32.0 °F 26.4 °F 28.4 °F 87% 29.61 in 10.0 mi WSW 5.8 mph - N/A   Mostly Cloudy
3:56 AM 32.0 °F 27.5 °F 28.4 °F 87% 29.62 in 10.0 mi SW 4.6 mph - N/A   Mostly Cloudy
4:16 AM 32.0 °F 25.6 °F 28.4 °F 87% 29.63 in 10.0 mi WSW 6.9 mph - N/A   Overcast
4:36 AM 30.2 °F 24.3 °F 28.4 °F 93% 29.64 in 10.0 mi WSW 5.8 mph - N/A   Overcast
4:56 AM 32.0 °F 28.7 °F 28.4 °F 87% 29.65 in 10.0 mi South 3.5 mph - N/A   Overcast
5:16 AM 30.2 °F - 28.4 °F 93% 29.66 in 10.0 mi Calm Calm - N/A   Overcast
5:36 AM 30.2 °F 25.4 °F 26.6 °F 86% 29.67 in 10.0 mi SSW 4.6 mph - N/A   Overcast
5:56 AM 30.2 °F 26.7 °F 26.6 °F 86% 29.68 in 10.0 mi SW 3.5 mph - N/A   Overcast
6:16 AM 30.2 °F - 26.6 °F 86% 29.69 in 10.0 mi Calm Calm - N/A   Overcast
6:36 AM 30.2 °F 25.4 °F 28.4 °F 93% 29.70 in 10.0 mi SSW 4.6 mph - N/A   Overcast
6:56 AM 30.2 °F 24.3 °F 28.4 °F 93% 29.70 in 10.0 mi South 5.8 mph - N/A   Overcast
7:16 AM 30.2 °F 24.3 °F 28.4 °F 93% 29.72 in 10.0 mi SSW 5.8 mph - N/A   Overcast
7:36 AM 30.2 °F 25.4 °F 28.4 °F 93% 29.73 in 10.0 mi SSW 4.6 mph - N/A   Overcast
7:56 AM 30.2 °F 25.4 °F 26.6 °F 86% 29.74 in 10.0 mi South 4.6 mph - N/A   Overcast
8:16 AM 30.2 °F 24.3 °F 28.4 °F 93% 29.75 in 10.0 mi South 5.8 mph - N/A   Overcast
8:36 AM 30.2 °F 24.3 °F 28.4 °F 93% 29.76 in 10.0 mi South 5.8 mph - N/A   Overcast
8:56 AM 30.2 °F 26.7 °F 28.4 °F 93% 29.78 in 10.0 mi South 3.5 mph - N/A   Overcast
9:16 AM 30.2 °F 25.4 °F 28.4 °F 93% 29.79 in 10.0 mi South 4.6 mph - N/A   Overcast
9:36 AM 30.2 °F 25.4 °F 28.4 °F 93% 29.80 in 10.0 mi South 4.6 mph - N/A   Overcast
9:56 AM 30.2 °F 26.7 °F 28.4 °F 93% 29.80 in 10.0 mi South 3.5 mph - N/A   Overcast
10:16 AM 28.4 °F - 26.6 °F 93% 29.82 in 10.0 mi Calm Calm - N/A   Overcast
10:36 AM 28.4 °F - 28.4 °F 100% 29.83 in 10.0 mi Calm Calm - N/A   Overcast
10:56 AM 28.4 °F 24.6 °F 28.4 °F 100% 29.83 in 10.0 mi ENE 3.5 mph - N/A   Overcast
11:16 AM 28.4 °F - 28.4 °F 100% 29.84 in 10.0 mi Calm Calm - N/A   Overcast
11:36 AM 28.4 °F - 28.4 °F 100% 29.85 in 10.0 mi Calm Calm - N/A   Overcast
11:56 AM 28.4 °F - 28.4 °F 100% 29.87 in 10.0 mi Calm Calm - N/A   Overcast
12:16 PM 30.2 °F - 28.4 °F 93% 29.87 in 10.0 mi Calm Calm - N/A   Overcast
12:36 PM 30.2 °F 26.7 °F 30.2 °F 100% 29.88 in 10.0 mi East 3.5 mph - N/A   Overcast
12:56 PM 30.2 °F - 28.4 °F 93% 29.89 in 10.0 mi Calm Calm - N/A   Scattered Clouds
1:16 PM 30.2 °F - 26.6 °F 86% 29.89 in 10.0 mi Calm Calm - N/A   Clear
1:36 PM 28.4 °F - 26.6 °F 93% 29.90 in 3.0 mi Calm Calm - N/A   Clear
1:56 PM 30.2 °F - 30.2 °F 100% 29.90 in 10.0 mi Calm Calm - N/A   Clear
2:16 PM 30.2 °F 26.7 °F 28.4 °F 93% 29.90 in 5.0 mi East 3.5 mph - N/A   Clear
2:36 PM 30.2 °F - 28.4 °F 93% 29.91 in 10.0 mi Calm Calm - N/A   Clear
2:56 PM 28.4 °F - 26.6 °F 93% 29.92 in 10.0 mi Calm Calm - N/A   Clear
3:16 PM 28.4 °F - 26.6 °F 93% 29.92 in 4.0 mi Calm Calm - N/A   Clear
3:36 PM 26.6 °F - 26.6 °F 100% 29.94 in 1.0 mi Calm Calm - N/A   Clear
3:56 PM 26.6 °F - 24.8 °F 93% 29.94 in 0.8 mi Calm Calm - N/A   Unknown
4:16 PM 26.6 °F - 26.6 °F 100% 29.94 in 10.0 mi Calm Calm - N/A   Clear
4:36 PM 24.8 °F - 23.0 °F 93% 29.95 in 0.5 mi Calm Calm - N/A   Unknown
4:56 PM 26.6 °F - 24.8 °F 93% 29.96 in 0.8 mi Calm Calm - N/A   Unknown
5:16 PM 23.0 °F 18.4 °F 21.2 °F 93% 29.96 in 1.0 mi ENE 3.5 mph - N/A   Clear
5:36 PM 24.8 °F - 24.8 °F 100% 29.98 in 10.0 mi Calm Calm - N/A   Clear
5:56 PM 21.2 °F 13.6 °F 21.2 °F 100% 29.97 in 1.2 mi East 5.8 mph - N/A   Clear
6:16 PM 26.6 °F - 24.8 °F 93% 29.98 in 10.0 mi Calm Calm - N/A   Partly Cloudy
6:36 PM 24.8 °F 20.5 °F 21.2 °F 86% 29.99 in 10.0 mi East 3.5 mph - N/A   Partly Cloudy
6:56 PM 24.8 °F 20.5 °F 23.0 °F 93% 30.00 in 10.0 mi East 3.5 mph - N/A   Clear
7:16 PM 23.0 °F 17.0 °F 21.2 °F 93% 30.00 in 10.0 mi ENE 4.6 mph - N/A   Clear
7:36 PM 24.8 °F 20.5 °F 21.2 °F 86% 30.01 in 10.0 mi SE 3.5 mph - N/A   Scattered Clouds
7:56 PM 23.0 °F 14.7 °F 21.2 °F 93% 29.99 in 10.0 mi East 6.9 mph - N/A   Scattered Clouds
8:16 PM 24.8 °F 20.5 °F 21.2 °F 86% 29.99 in 10.0 mi SE 3.5 mph - N/A   Partly Cloudy
8:36 PM 24.8 °F 19.1 °F 23.0 °F 93% 30.00 in 10.0 mi ENE 4.6 mph - N/A   Mostly Cloudy
8:56 PM 24.8 °F 19.1 °F 23.0 °F 93% 30.01 in 10.0 mi East 4.6 mph - N/A   Mostly Cloudy
9:16 PM 24.8 °F 19.1 °F 23.0 °F 93% 30.02 in 10.0 mi East 4.6 mph - N/A   Scattered Clouds
9:36 PM 24.8 °F 17.9 °F 21.2 °F 86% 30.02 in 10.0 mi East 5.8 mph - N/A   Clear
9:56 PM 23.0 °F 17.0 °F 21.2 °F 93% 30.02 in 10.0 mi East 4.6 mph - N/A   Mostly Cloudy
10:16 PM 23.0 °F 17.0 °F 21.2 °F 93% 30.03 in 10.0 mi East 4.6 mph - N/A   Overcast
10:36 PM 24.8 °F 19.1 °F 21.2 °F 86% 30.03 in 10.0 mi East 4.6 mph - N/A   Overcast
10:56 PM 24.8 °F 20.5 °F 21.2 °F 86% 30.04 in 10.0 mi East 3.5 mph - N/A   Overcast
11:16 PM 24.8 °F - 21.2 °F 86% 30.04 in 10.0 mi North - - N/A   Overcast
11:36 PM 24.8 °F 19.1 °F 23.0 °F 93% 30.04 in 10.0 mi ENE 4.6 mph - N/A   Overcast
11:56 PM 24.8 °F - 21.2 °F 86% 30.05 in 10.0 mi Calm Calm - N/A   Overcast